Regional Weather Roundup
Issued by NWS

Home | Current Version | Previous Version | Text Only | Print | Product List | Glossary Off
Versions: 1 2 3 4 5 6 7 8 9 10 11 12 13 14 15 16 17 18 19 20 21 22 23 24 25 26 27 28 29 30 31 32 33 34 35 36 37 38 39 40 41 42 43 44 45 46 47 48 49 50

000
ASUS44 KMEG 051610
RWRTN
TENNESSEE HOURLY STATE WEATHER ROUNDUP
NATIONAL WEATHER SERVICE MEMPHIS TN
1000 AM CST THU MAR 05 2015

TNZ002-004-019-021-049-052-054-088>092-051700-
WEST TENNESSEE

CITY           SKY/WX    TMP DP  RH WIND       PRES   REMARKS
MEMPHIS INTL   CLOUDY    26  16  65 N14G20    30.50R WCI  14
NWS MEMPHIS      N/A     23 N/A N/A MISG        N/A
JACKSON        CLOUDY    22  12  65 N16       30.44R WCI   8
DYERSBURG      PTSUNNY   23   3  42 N12       30.50R WCI  12
UNION CITY       N/A     21  12  68 N14       30.47R WCI   8
PARIS            N/A     18   7  62 N13       30.44R WCI   4
LEXINGTON      CLOUDY    19  16  86 N12G23    30.39R WCI   7
SAVANNAH       CLOUDY    21  18  86 N14       30.39R WCI   8
$$

TNZ008-025-027-028-033-062-065-066-051700-
NORTH MIDDLE TENNESSEE

CITY           SKY/WX    TMP DP  RH WIND       PRES   REMARKS
NASHVILLE      LGT SNOW  23  18  81 N15G21    30.35R FOG     WCI  10
CLARKSVILLE    CLOUDY    20  13  74 N14       30.41S WCI   7
SMYRNA         LGT SNOW  23  20  89 N9G16     30.33F FOG     WCI  13
COOKEVILLE     CLOUDY    23  19  86 N8        30.22F WCI  14
CROSSVILLE     CLOUDY    24  19  81 N9G23     30.17S HAZE    WCI  14
$$

TNZ061-075-076-078-094-096-097-051700-
SOUTH MIDDLE TENNESSEE

CITY           SKY/WX    TMP DP  RH WIND       PRES   REMARKS
FAYETTEVILLE   CLOUDY    21  19  93 N12         N/A  WCI   9
TULLAHOMA      CLOUDY    23  19  86 N13         N/A  WCI  11
WINCHESTER     CLOUDY    27  23  86 N12       30.21F WCI  16
MCMINNVILLE    CLOUDY    25  23  93 N13       30.22F WCI  13
COLUMBIA       CLOUDY   N/A N/A N/A N12       30.34R
SHELBYVILLE    CLOUDY    25  21  86 N10       30.26F WCI  15
$$

TNZ017-018-042-046-047-051700-
NORTHEAST TENNESSEE

CITY           SKY/WX    TMP DP  RH WIND       PRES   REMARKS
TRI CITIES     RAIN      33  31  92 NW6       30.13R FOG     WCI  28
ELIZABETHTON   RAIN      34  32  93 W5        30.10R WCI  30
$$

TNZ012-013-036-069-073-074-051700-
CENTRAL EAST TENNESSEE

CITY           SKY/WX    TMP DP  RH WIND       PRES   REMARKS
KNOXVILLE      LGT RAIN  32  30  92 N9        30.15S FOG     WCI  24
OAK RIDGE      FRZ RAIN  32  29  88 VRB6      30.18R FOG     WCI  26
GATLINBURG     CLOUDY    34  34 100 NW5       30.15R WCI  30
MORRISTOWN     CLOUDY    32  32 100 N3        30.12F
$$

TNZ083-085-099-051700-
SOUTHEAST TENNESSEE

CITY           SKY/WX    TMP DP  RH WIND       PRES   REMARKS
CHATTANOOGA    LGT RAIN  37  34  89 NW13      30.17F WCI  29
$$

SKY/WX REPORTED AS FAIR MEANS FEW OR NO CLOUDS BELOW
12 THOUSAND FEET.




USA.gov is the U.S. government's official web portal to all federal, state and local government web resources and services.